749  
SXUS52 KTAE 200716  
OSOTAE  
OSOTAE  
NORTH FLORIDA/SOUTH ALABAMA/SOUTHWEST GEORGIA WEATHER ROUNDUP  
NATIONAL WEATHER SERVICE TALLAHASSEE FLORIDA  
300 AM EDT WED MAR 20 2019  
 
NOTE: "FAIR" INDICATES FEW OR NO CLOUDS BELOW 12,000 FEET WITH NO  
SIGNIFICANT WEATHER AND/OR OBSTRUCTIONS TO VISIBILITY.  
 
!FLZ017-115-028-034-025-200800   
..NORTH FLORIDA
 
 
 
CITY SKY/WX TMP DP RH WIND PRES REMARKS  
TALL INTL ARPT FAIR 51 42 71 NE3 30.20F  
FSU LOVE BLDG N/A 52 43 71 NE3 N/A  
APALACHICOLA FAIR 51 44 77 NE6 30.18F  
PERRY FAIR 50 39 67 NE6 30.19F  
CROSS CITY CLOUDY 55 41 58 NE9 30.16F  
JACKSONVILLE CLOUDY 56 41 57 NE13 30.17F  

 
 
!FLZ112-006-005-002-011-200800   
..FLORIDA PANHANDLE
 
 
 
CITY SKY/WX TMP DP RH WIND PRES REMARKS  
MARIANNA FAIR 47 42 83 CALM 30.20F  
BONIFAY NOT AVBL  
PANAMA CITY NW FAIR 50 42 74 N6 30.19F  
TYNDALL AFB FAIR 54 45 73 E5 30.19F  
TYND DRONE APT FAIR 52 45 76 E6 30.19F  
DE FUNIAK SPR NOT AVBL  
EGLIN AFB FAIR 44 35 70 NE7 30.18F WCI 40  
DESTIN FAIR 53 41 63 NE3 30.20F  
HURLBURT CLEAR 43 35 73 NE6 30.18F WCI 40  
CRESTVIEW FAIR 37 34 89 CALM 30.21F  
PENSACOLA FAIR 50 35 56 N7 30.19F  

 
 
!ALZ063-066-200800   
..SOUTH ALABAMA
 
 
 
CITY SKY/WX TMP DP RH WIND PRES REMARKS  
DOTHAN N/A 44 36 73 NE6 30.25F WCI 41  
OZARK CAIRNS FAIR 42 37 83 NE7 30.21F WCI 38  
FT RUCKER HELI FAIR 40 39 96 NE3 30.22S  
RUCKER HELI 3 FAIR 45 37 71 E5 30.21F WCI 43  
RUCKER HELI 2 FAIR 48 37 64 NE6 30.21F  
FLORALA APT FAIR 41 36 82 CALM 30.22F  
ANDALUSIA FAIR 45 36 70 CALM 30.20F  
TROY FAIR 38 36 92 CALM 30.24F  
EUFALA NOT AVBL  
MOBILE FAIR 46 29 51 N7 30.20F WCI 42  

 
 
!GAZ120>161-200800   
..SOUTHWEST AND SOUTH CENTRAL GEORGIA
 
 
 
CITY SKY/WX TMP DP RH WIND PRES REMARKS  
THOMASVILLE FAIR 46 41 81 CALM 30.22F  
BAINBRIDGE N/A 48 37 66 MISG 30.22F  
MOODY AFB FAIR 48 39 73 NE6 30.19F WCI 45  
VALDOSTA FAIR 49 39 68 NE7 30.20F  
MOULTRIE FAIR 46 36 66 CALM 30.22F  
BLAKELY FAIR 41 36 81 CALM 30.23F  
ALBANY FAIR 48 35 60 NE6 30.25F  
TIFTON FAIR 46 33 61 CALM 30.22  
FITZGERALD FAIR 44 36 75 NE3 30.26F  
CORDELE FAIR 42 32 66 NE3 30.26S  
AMERICUS FAIR 43 34 70 NE5 30.27S WCI 40  
HOMERVILLE NOT AVBL  

 
 
!GMZ750-755-770-775-200800   
..COASTAL AND BUOY OBS
 
 
 
STATION/POSITION TIME TEMP WIND PRES VSBY WAVE  
AIR SEA DIR/SP/G HT/PER  
(UTC) (F) (DEG/KT/KT) (MB) (MI) (FT/S)  
KEATON BEACH 0700 51 40/ 7/ 10 1021.5F  
CEDAR KEY 0700 56 40/ 10/ 13 1020.2F  
C TOWER 0700 59 80/ 21/ 23 1021.5F  
APALACHICOLA BUO NOT AVBL  
PANAMA CITY BUOY NOT AVBL  
MOBILE BUOY 0700 30/ 10/ 14 1022.0  
ORANGE BCH AL BU 0650 1022.2F 2/ 2  

 
 
 
CLICK HERE TO GO TO PREVIOUS BULLETINS.

The Nexlab FL Page
The Nexlab GA Page
The Nexlab AL Page Main Text Page